Tracking 20942 objects as of 10-Jul-2020
HD Live streaming from Space Station
objects crossing your sky now

SATCOM 1

Track SATCOM 1 now!
SATCOM 1 is classified as:


NORAD ID: 8476
Int'l Code: 1975-117A
Perigee: 35,920.2 km
Apogee: 36,041.8 km
Inclination: 12.4 °
Period: 1,445.7 minutes
Semi major axis: 42352 km
RCS: 2.5118 m2 (large)
Launch date: December 13, 1975
Source: United States (US)
Launch site: AIR FORCE EASTERN TEST RANGE (AFETR)
aabbcc
Your satellite tracking list
Your tracking list is empty




NASA's NSSDC Master Catalog

Two Line Element Set (TLE):
1  8476U 75117A   20192.16334751 -.00000233  00000-0  00000+0 0  9998
2  8476  12.4217 323.8451 0014363 207.8832 158.2970  0.99607458108040
Source of the keplerian elements: AFSPC